Anoka County, MN

6:20 AM CDT on July 28, 2017 (GMT -0500)
Anoka County / Blaine Airport

Weather History for KANE - April, 2014

Change the Weather History Date:

Friday, April 4, 2014

  Actual Average Record
Temperature  
Mean Temperature 35 °F -  
Max Temperature 42 °F 47 °F 73 °F (2005)
Min Temperature 28 °F 29 °F 17 °F (2007)
Degree Days  
Heating Degree Days 30    
Moisture  
Dew Point 27 °F    
Average Humidity 83    
Maximum Humidity 100    
Minimum Humidity 53    
Precipitation  
Precipitation 0.00 in - - ()
Sea Level Pressure  
Sea Level Pressure 29.83 in    
Wind  
Wind Speed 14 mph (NW)    
Max Wind Speed 22 mph    
Max Gust Speed 28 mph    
Visibility 7 miles    
Events Snow    
Averages and records for this station are not official NWS values.
T = Trace of Precipitation, MM = Missing Value Source: NWS Daily Summary

Daily Weather History Graph

Daily Weather History Graph

Search for Another Location

Airport or City:

Trip Planner

Search our weather history database for the weather conditions in past years. The results will help you decide how hot, cold, wet, or windy it might be!

Date:

Astronomy

Apr. 04, 2014 Rise Set
Actual Time 6:47 AM CDT 7:44 PM CDT
Civil Twilight 6:17 AM CDT 8:14 PM CDT
Nautical Twilight 5:42 AM CDT 8:50 PM CDT
Astronomical Twilight 5:04 AM CDT 9:28 PM CDT
Moon 9:55 AM CDT (4/4) 12:13 AM CDT (4/4)
Length of Visible Light 13h 56m
Length of Day
12h 56m
Waxing Crescent, 25% of the Moon is Illuminated
Apr 4
Waxing Crescent
Apr 7
First Quarter
Apr 15
Full
Apr 22
Last Quarter
Apr 29
New

Hourly Weather History & Observations

Time (CDT) Temp. Windchill Dew Point Humidity Pressure Visibility Wind Dir Wind Speed Gust Speed Precip Events Conditions
12:15 AM 30.2 °F 20.2 °F 30.2 °F 100% 29.78 in 1.5 mi North 12.7 mph - N/A Snow Light Snow
12:35 AM 30.2 °F 19.8 °F 30.2 °F 100% 29.75 in 1.0 mi North 13.8 mph - N/A Snow Snow
12:55 AM 30.2 °F 20.2 °F 28.4 °F 93% 29.75 in 2.0 mi North 12.7 mph - N/A Snow Light Snow
1:16 AM 30.2 °F 19.3 °F 28.4 °F 93% 29.75 in 4.0 mi North 15.0 mph - N/A Snow Light Snow
1:35 AM 30.2 °F 18.5 °F 28.4 °F 93% 29.72 in 2.0 mi North 17.3 mph - N/A Snow Light Snow
1:55 AM 30.2 °F 19.3 °F 28.4 °F 93% 29.71 in 2.0 mi North 15.0 mph 19.6 mph N/A Snow Light Snow
2:16 AM 28.4 °F 18.0 °F 28.4 °F 100% 29.72 in 3.0 mi North 12.7 mph - N/A Snow Light Snow
2:35 AM 30.2 °F 21.9 °F 28.4 °F 93% 29.73 in 5.0 mi North 9.2 mph - N/A Snow Light Snow
2:55 AM 30.2 °F 20.8 °F 28.4 °F 93% 29.72 in 10.0 mi North 11.5 mph - N/A   Overcast
3:16 AM 28.4 °F 17.0 °F 28.4 °F 100% 29.72 in 10.0 mi North 15.0 mph - N/A   Overcast
3:35 AM 28.4 °F 16.2 °F 28.4 °F 100% 29.71 in 5.0 mi North 17.3 mph - N/A Snow Light Snow
3:55 AM 28.4 °F 15.8 °F 26.6 °F 93% 29.71 in 7.0 mi NNW 18.4 mph 24.2 mph N/A   Overcast
4:16 AM 28.4 °F 15.4 °F 26.6 °F 93% 29.72 in 10.0 mi NNW 19.6 mph 24.2 mph N/A   Overcast
4:35 AM 28.4 °F 17.5 °F 26.6 °F 93% 29.73 in 10.0 mi NNW 13.8 mph 23.0 mph N/A   Overcast
4:55 AM 28.4 °F 16.6 °F 26.6 °F 93% 29.73 in 10.0 mi NNW 16.1 mph - N/A   Overcast
5:16 AM 28.4 °F 17.0 °F 26.6 °F 93% 29.73 in 7.0 mi NNW 15.0 mph - N/A Snow Light Snow
5:35 AM 28.4 °F 15.4 °F 26.6 °F 93% 29.72 in 10.0 mi NNW 19.6 mph 23.0 mph N/A Snow Light Snow
5:55 AM 28.4 °F 16.6 °F 26.6 °F 93% 29.73 in 5.0 mi NNW 16.1 mph 21.9 mph N/A Snow Light Snow
6:15 AM 28.4 °F 15.8 °F 26.6 °F 93% 29.73 in 2.5 mi NNW 18.4 mph 25.3 mph N/A Snow Light Snow
6:36 AM 28.4 °F 16.6 °F 26.6 °F 93% 29.73 in 2.0 mi NNW 16.1 mph 21.9 mph N/A Snow Light Snow
6:55 AM 28.4 °F 15.8 °F 26.6 °F 93% 29.74 in 1.0 mi NNW 18.4 mph 23.0 mph N/A Snow Snow
7:45 AM 28.4 °F 16.2 °F 26.6 °F 93% 29.75 in 2.0 mi NNW 17.3 mph 23.0 mph N/A Snow Light Snow
8:50 AM 28.4 °F 15.8 °F 28.4 °F 100% 29.77 in 1.2 mi NNW 18.4 mph 23.0 mph N/A Snow Light Snow
9:50 AM 30.2 °F 17.8 °F 28.4 °F 93% 29.79 in 2.0 mi NNW 19.6 mph 25.3 mph N/A Snow Light Snow
10:45 AM 33.8 °F 23.5 °F 26.6 °F 75% 29.81 in 10.0 mi NNW 16.1 mph 24.2 mph N/A   Overcast
1:50 PM 37.4 °F 27.2 °F 28.4 °F 70% 29.86 in 10.0 mi NW 19.6 mph 25.3 mph N/A   Overcast
3:00 PM 39.2 °F 29.0 °F 26.6 °F 61% 29.88 in 10.0 mi NW 21.9 mph 27.6 mph N/A   Scattered Clouds
4:45 PM 41.0 °F 32.5 °F 26.6 °F 57% 29.90 in 10.0 mi WNW 17.3 mph 21.9 mph N/A   Scattered Clouds
5:50 PM 42.8 °F 36.2 °F 26.6 °F 53% 29.93 in 10.0 mi NW 12.7 mph - N/A   Clear
6:50 PM 41.0 °F 33.9 °F 26.6 °F 57% 29.95 in 10.0 mi NW 12.7 mph 18.4 mph N/A   Clear
7:45 PM 39.2 °F 33.0 °F 24.8 °F 56% 29.96 in 10.0 mi WNW 9.2 mph - N/A   Clear
8:45 PM 37.4 °F 33.8 °F 24.8 °F 60% 29.99 in 10.0 mi West 4.6 mph - N/A   Clear
9:15 PM 37.4 °F 33.8 °F 24.8 °F 60% 30.00 in 10.0 mi West 4.6 mph - N/A   Clear
9:35 PM 37.4 °F 32.8 °F 24.8 °F 60% 30.00 in 10.0 mi West 5.8 mph - N/A   Clear
9:55 PM 37.4 °F 32.8 °F 24.8 °F 60% 30.01 in 10.0 mi WSW 5.8 mph - N/A   Clear
10:15 PM 35.6 °F 29.9 °F 24.8 °F 65% 30.01 in 10.0 mi West 6.9 mph - N/A   Clear
10:35 PM 35.6 °F 30.7 °F 26.6 °F 70% 30.02 in 10.0 mi West 5.8 mph - N/A   Clear
10:55 PM 35.6 °F 29.9 °F 26.6 °F 70% 30.02 in 10.0 mi West 6.9 mph - N/A   Clear
11:15 PM 33.8 °F 28.6 °F 28.4 °F 81% 30.03 in 10.0 mi WSW 5.8 mph - N/A   Clear
11:35 PM 33.8 °F 28.6 °F 28.4 °F 81% 30.03 in 10.0 mi WSW 5.8 mph - N/A   Clear
11:55 PM 33.8 °F 28.6 °F 28.4 °F 81% 30.03 in 10.0 mi WSW 5.8 mph - N/A   Clear